Location: L�Ave Maria
(50.7161°N, 1.5911°E)
Time: 13:13:12
(UTC+00:00)

CZ-4C R/B - Pass Details

Date: 10 July 2020
Orbit: 632 x 1370 km, 63.4° (Epoch: 06 August)

Event Time Altitude Azimuth Distance (km) Brightness Sun altitude
Rises 22:33:40 0° 314° (NW) 3,694 6.8 -14.8°
Reaches altitude 10° 22:36:06 10° 318° (NW) 2,845 6.0 -14.9°
Maximum altitude 22:42:58 68° 41° (NE) 1,265 3.2 -15.3°
Enters shadow 22:50:52 11° 124° (ESE) 3,265 4.8 -15.7°
